N378TB KTEX-KSDL

Flight info

Callsign N378TB
Flight time 1h 1m
Altitude 40000
Route ETL DVC YIKLO INW DSERT2
Aircraft E190/M-SDE1E2E3FGHIJ3J4J7P2RWXY/LB1D1G1

Departure

Time 2026-04-25 05:56
Airport Telluride Regional Airport (KTEX)

Arrival

Time 2026-04-25 06:58
Airport Scottsdale Airport (KSDL)
Time Latitude Longitude Altitude Speed Heading
2026-04-25 05:29 37.95379 -107.90147 9080 ft 0 kts 195°
2026-04-25 05:53 37.95353 -107.90142 9080 ft 7 kts 143°
2026-04-25 05:54 37.95324 -107.90060 9083 ft 13 kts 105°
2026-04-25 05:54 37.95302 -107.89964 9088 ft 9 kts 106°
2026-04-25 05:54 37.95276 -107.89843 9094 ft 5 kts 105°
2026-04-25 05:55 37.95266 -107.89800 9096 ft 6 kts 105°
2026-04-25 05:55 37.95245 -107.89708 9100 ft 15 kts 108°
2026-04-25 05:55 37.95152 -107.89690 9099 ft 14 kts 213°
2026-04-25 05:55 37.95146 -107.89757 9096 ft 11 kts 279°
2026-04-25 05:56 37.95176 -107.89898 9089 ft 27 kts 284°
2026-04-25 05:56 37.95303 -107.90506 9059 ft 114 kts 284°
2026-04-25 05:56 37.95569 -107.91785 9120 ft 173 kts 284°
2026-04-25 05:56 37.95898 -107.93286 9774 ft 182 kts 284°
2026-04-25 05:57 37.96212 -107.94783 10586 ft 177 kts 283°
2026-04-25 05:57 37.96555 -107.96426 10851 ft 207 kts 283°
2026-04-25 05:57 37.96952 -107.98321 11127 ft 234 kts 283°
2026-04-25 05:57 37.97401 -108.00358 11653 ft 248 kts 286°
2026-04-25 05:58 37.97942 -108.02428 12411 ft 251 kts 286°
2026-04-25 05:58 37.98493 -108.04544 13120 ft 261 kts 285°
2026-04-25 05:58 37.99081 -108.06805 13203 ft 296 kts 286°
2026-04-25 05:58 37.99755 -108.09392 13589 ft 319 kts 286°
2026-04-25 05:59 38.00456 -108.12083 14429 ft 325 kts 286°
2026-04-25 05:59 38.01154 -108.14765 15443 ft 325 kts 286°
2026-04-25 05:59 38.01862 -108.17490 16457 ft 326 kts 286°
2026-04-25 05:59 38.02568 -108.20213 17387 ft 329 kts 286°
2026-04-25 06:00 38.03293 -108.23010 18254 ft 334 kts 285°
2026-04-25 06:00 38.03666 -108.25693 19040 ft 333 kts 265°
2026-04-25 06:00 38.03090 -108.28489 19900 ft 334 kts 248°
2026-04-25 06:00 38.02215 -108.31122 20795 ft 335 kts 248°
2026-04-25 06:01 38.01327 -108.33749 21652 ft 337 kts 248°
2026-04-25 06:01 38.00431 -108.36385 22495 ft 339 kts 248°
2026-04-25 06:01 37.99548 -108.38975 23276 ft 341 kts 248°
2026-04-25 06:01 37.98612 -108.41716 24114 ft 342 kts 248°
2026-04-25 06:02 37.97662 -108.44491 24903 ft 345 kts 248°
2026-04-25 06:02 37.96793 -108.47027 25580 ft 346 kts 248°
2026-04-25 06:02 37.95832 -108.49831 26340 ft 347 kts 248°
2026-04-25 06:02 37.94872 -108.52628 27092 ft 348 kts 248°
2026-04-25 06:03 37.93901 -108.55454 27782 ft 349 kts 248°
2026-04-25 06:03 37.93051 -108.57928 28391 ft 350 kts 248°
2026-04-25 06:03 37.92075 -108.60764 29054 ft 351 kts 248°
2026-04-25 06:03 37.91108 -108.63571 29686 ft 353 kts 249°
2026-04-25 06:04 37.90169 -108.66291 30272 ft 354 kts 248°
2026-04-25 06:04 37.89169 -108.69191 30817 ft 358 kts 248°
2026-04-25 06:04 37.88165 -108.72097 31280 ft 363 kts 248°
2026-04-25 06:04 37.87147 -108.75041 31736 ft 368 kts 248°
2026-04-25 06:05 37.86115 -108.78024 32253 ft 370 kts 248°
2026-04-25 06:05 37.85084 -108.80999 32865 ft 370 kts 248°
2026-04-25 06:05 37.84053 -108.83968 33536 ft 368 kts 249°
2026-04-25 06:05 37.83030 -108.86916 34180 ft 365 kts 249°
2026-04-25 06:06 37.81955 -108.89799 34737 ft 365 kts 243°
2026-04-25 06:06 37.80530 -108.92333 35213 ft 370 kts 233°
2026-04-25 06:06 37.78657 -108.94592 35692 ft 376 kts 224°
2026-04-25 06:06 37.76451 -108.96368 36208 ft 384 kts 214°
2026-04-25 06:07 37.74828 -108.97380 36594 ft 384 kts 215°
2026-04-25 06:07 37.72471 -108.98920 37128 ft 382 kts 216°
2026-04-25 06:07 37.70110 -109.00510 37580 ft 382 kts 216°
2026-04-25 06:07 37.67788 -109.02089 38021 ft 381 kts 216°
2026-04-25 06:08 37.65455 -109.03680 38456 ft 381 kts 217°
2026-04-25 06:08 37.63142 -109.05259 38843 ft 381 kts 217°
2026-04-25 06:08 37.60795 -109.06860 39217 ft 382 kts 217°
2026-04-25 06:08 37.58462 -109.08451 39546 ft 382 kts 217°
2026-04-25 06:09 37.56234 -109.09969 39864 ft 382 kts 217°
2026-04-25 06:09 37.53910 -109.11551 39938 ft 378 kts 217°
2026-04-25 06:09 37.49174 -109.14775 39957 ft 394 kts 216°
2026-04-25 06:10 37.44243 -109.18124 39952 ft 409 kts 216°
2026-04-25 06:10 37.39314 -109.21464 39941 ft 410 kts 216°
2026-04-25 06:11 37.34282 -109.24871 39937 ft 409 kts 216°
2026-04-25 06:11 37.29281 -109.28252 39934 ft 408 kts 216°
2026-04-25 06:12 37.24287 -109.31623 39933 ft 408 kts 216°
2026-04-25 06:12 37.19269 -109.35005 39934 ft 407 kts 216°
2026-04-25 06:13 37.14268 -109.38371 39936 ft 406 kts 216°
2026-04-25 06:14 37.06856 -109.43350 39942 ft 407 kts 216°
2026-04-25 06:14 37.01865 -109.46697 39944 ft 407 kts 216°
2026-04-25 06:15 36.96879 -109.50034 39948 ft 407 kts 216°
2026-04-25 06:15 36.91888 -109.53370 39961 ft 406 kts 217°
2026-04-25 06:16 36.86909 -109.56694 39964 ft 406 kts 216°
2026-04-25 06:16 36.81903 -109.60030 39977 ft 407 kts 217°
2026-04-25 06:17 36.76910 -109.63353 39975 ft 407 kts 217°
2026-04-25 06:17 36.71901 -109.66681 40005 ft 406 kts 216°
2026-04-25 06:18 36.66901 -109.69999 40004 ft 408 kts 216°
2026-04-25 06:18 36.61887 -109.73320 39997 ft 407 kts 216°
2026-04-25 06:19 36.56889 -109.76627 40001 ft 406 kts 216°
2026-04-25 06:19 36.51905 -109.79919 40006 ft 407 kts 216°
2026-04-25 06:20 36.46893 -109.83225 40009 ft 408 kts 216°
2026-04-25 06:20 36.41883 -109.86524 40013 ft 406 kts 216°
2026-04-25 06:21 36.36975 -109.89912 40006 ft 405 kts 218°
2026-04-25 06:21 36.32177 -109.93260 40009 ft 403 kts 218°
2026-04-25 06:22 36.27297 -109.96659 40015 ft 403 kts 218°
2026-04-25 06:22 36.22400 -110.00066 40031 ft 404 kts 218°
2026-04-25 06:23 36.17519 -110.03456 40030 ft 403 kts 218°
2026-04-25 06:23 36.12650 -110.06831 40028 ft 404 kts 218°
2026-04-25 06:24 36.07735 -110.10234 40025 ft 404 kts 218°
2026-04-25 06:24 36.02819 -110.13634 40023 ft 402 kts 218°
2026-04-25 06:25 35.97950 -110.16996 40021 ft 400 kts 218°
2026-04-25 06:25 35.93059 -110.20368 40035 ft 400 kts 218°
2026-04-25 06:26 35.88191 -110.23721 40033 ft 400 kts 218°
2026-04-25 06:26 35.83331 -110.27062 40039 ft 403 kts 219°
2026-04-25 06:27 35.78444 -110.30417 40048 ft 401 kts 219°
2026-04-25 06:27 35.73568 -110.33759 40042 ft 399 kts 218°
2026-04-25 06:28 35.68725 -110.37076 40040 ft 400 kts 218°
2026-04-25 06:28 35.63856 -110.40404 40024 ft 401 kts 219°
2026-04-25 06:29 35.58984 -110.43729 40025 ft 400 kts 219°
2026-04-25 06:29 35.54162 -110.47014 40000 ft 385 kts 219°
2026-04-25 06:30 35.49541 -110.50163 40014 ft 382 kts 219°
2026-04-25 06:30 35.44859 -110.53346 39512 ft 383 kts 220°
2026-04-25 06:30 35.42551 -110.54913 39102 ft 379 kts 220°
2026-04-25 06:31 35.40258 -110.56467 38555 ft 376 kts 220°
2026-04-25 06:31 35.37965 -110.58020 37988 ft 377 kts 221°
2026-04-25 06:31 35.35670 -110.59585 37444 ft 378 kts 221°
2026-04-25 06:31 35.33501 -110.61340 37013 ft 365 kts 228°
2026-04-25 06:32 35.31579 -110.62976 36997 ft 370 kts 223°
2026-04-25 06:32 35.29335 -110.64582 36595 ft 378 kts 221°
2026-04-25 06:32 35.26978 -110.66155 36209 ft 385 kts 219°
2026-04-25 06:32 35.24653 -110.67661 35796 ft 379 kts 219°
2026-04-25 06:33 35.22287 -110.69185 35366 ft 379 kts 219°
2026-04-25 06:33 35.19951 -110.70684 34942 ft 380 kts 219°
2026-04-25 06:33 35.17607 -110.72185 34522 ft 379 kts 219°
2026-04-25 06:33 35.15272 -110.73679 34095 ft 379 kts 219°
2026-04-25 06:34 35.12939 -110.75169 33674 ft 381 kts 219°
2026-04-25 06:34 35.10566 -110.76687 33237 ft 383 kts 218°
2026-04-25 06:34 35.08199 -110.78200 32809 ft 385 kts 219°
2026-04-25 06:34 35.06021 -110.79974 32407 ft 374 kts 228°
2026-04-25 06:35 35.04196 -110.82207 32005 ft 370 kts 237°
2026-04-25 06:35 35.02555 -110.84602 31596 ft 372 kts 237°
2026-04-25 06:35 35.00878 -110.87012 31181 ft 378 kts 236°
2026-04-25 06:35 34.99174 -110.89444 30767 ft 378 kts 236°
2026-04-25 06:36 34.97448 -110.91900 30355 ft 376 kts 236°
2026-04-25 06:36 34.95754 -110.94306 29947 ft 378 kts 236°
2026-04-25 06:36 34.94043 -110.96738 29527 ft 375 kts 235°
2026-04-25 06:36 34.92355 -110.99132 29121 ft 373 kts 235°
2026-04-25 06:37 34.90657 -111.01541 28702 ft 370 kts 235°
2026-04-25 06:37 34.88981 -111.03915 28301 ft 367 kts 235°
2026-04-25 06:37 34.87320 -111.06267 27903 ft 367 kts 235°
2026-04-25 06:37 34.85664 -111.08613 27503 ft 365 kts 235°
2026-04-25 06:38 34.84007 -111.10956 27102 ft 363 kts 235°
2026-04-25 06:38 34.82373 -111.13265 26706 ft 359 kts 235°
2026-04-25 06:38 34.80760 -111.15543 26311 ft 360 kts 235°
2026-04-25 06:38 34.79113 -111.17869 25913 ft 358 kts 235°
2026-04-25 06:39 34.77499 -111.20144 25520 ft 357 kts 235°
2026-04-25 06:39 34.75881 -111.22426 25128 ft 353 kts 234°
2026-04-25 06:39 34.74280 -111.24681 24741 ft 354 kts 235°
2026-04-25 06:39 34.72687 -111.26923 24349 ft 350 kts 235°
2026-04-25 06:40 34.71108 -111.29146 23966 ft 349 kts 235°
2026-04-25 06:40 34.69579 -111.31297 23591 ft 349 kts 235°
2026-04-25 06:40 34.67994 -111.33523 23206 ft 344 kts 234°
2026-04-25 06:40 34.66492 -111.35632 22853 ft 343 kts 234°
2026-04-25 06:41 34.64922 -111.37835 22471 ft 341 kts 234°
2026-04-25 06:41 34.63390 -111.39984 22091 ft 340 kts 234°
2026-04-25 06:41 34.61821 -111.42184 21715 ft 342 kts 234°
2026-04-25 06:41 34.60301 -111.44313 21344 ft 337 kts 234°
2026-04-25 06:42 34.58758 -111.46474 20969 ft 335 kts 234°
2026-04-25 06:42 34.57230 -111.48611 20597 ft 336 kts 234°
2026-04-25 06:42 34.55711 -111.50736 20229 ft 332 kts 233°
2026-04-25 06:42 34.54196 -111.52853 19855 ft 331 kts 233°
2026-04-25 06:43 34.52697 -111.54946 19480 ft 330 kts 233°
2026-04-25 06:43 34.51170 -111.57077 19105 ft 327 kts 233°
2026-04-25 06:43 34.49757 -111.59047 18756 ft 326 kts 233°
2026-04-25 06:43 34.48256 -111.61140 18386 ft 327 kts 233°
2026-04-25 06:44 34.46775 -111.63205 18016 ft 324 kts 233°
2026-04-25 06:44 34.45369 -111.65158 17670 ft 324 kts 231°
2026-04-25 06:44 34.43505 -111.66782 17308 ft 336 kts 207°
2026-04-25 06:44 34.41234 -111.67556 16931 ft 338 kts 200°
2026-04-25 06:45 34.38949 -111.68246 16538 ft 336 kts 200°
2026-04-25 06:45 34.36690 -111.68932 16162 ft 334 kts 199°
2026-04-25 06:45 34.34431 -111.69618 15790 ft 333 kts 199°
2026-04-25 06:45 34.32188 -111.70299 15421 ft 329 kts 199°
2026-04-25 06:46 34.30049 -111.70950 15071 ft 330 kts 199°
2026-04-25 06:46 34.27833 -111.71622 14704 ft 328 kts 199°
2026-04-25 06:46 34.25623 -111.72293 14341 ft 328 kts 198°
2026-04-25 06:46 34.23403 -111.72967 13972 ft 326 kts 198°
2026-04-25 06:47 34.21209 -111.73631 13603 ft 325 kts 198°
2026-04-25 06:47 34.18998 -111.74301 13240 ft 322 kts 198°
2026-04-25 06:47 34.16958 -111.74919 12900 ft 321 kts 198°
2026-04-25 06:47 34.14790 -111.75576 12538 ft 321 kts 198°
2026-04-25 06:48 34.12780 -111.76184 12204 ft 319 kts 197°
2026-04-25 06:48 34.10690 -111.76816 11855 ft 315 kts 197°
2026-04-25 06:48 34.08566 -111.77457 11498 ft 311 kts 197°
2026-04-25 06:48 34.06495 -111.78082 11150 ft 303 kts 196°
2026-04-25 06:49 34.04455 -111.78696 10816 ft 296 kts 196°
2026-04-25 06:49 34.02635 -111.79245 10511 ft 289 kts 196°
2026-04-25 06:49 34.00694 -111.79829 10193 ft 283 kts 196°
2026-04-25 06:49 33.98788 -111.80405 9878 ft 276 kts 195°
2026-04-25 06:50 33.96959 -111.80956 9576 ft 271 kts 195°
2026-04-25 06:50 33.95097 -111.81517 9273 ft 271 kts 195°
2026-04-25 06:50 33.93271 -111.82067 8971 ft 271 kts 195°
2026-04-25 06:50 33.91451 -111.82615 8667 ft 271 kts 195°
2026-04-25 06:51 33.89588 -111.83176 8362 ft 272 kts 195°
2026-04-25 06:51 33.87762 -111.83725 8173 ft 271 kts 196°
2026-04-25 06:51 33.85914 -111.84287 7888 ft 271 kts 198°
2026-04-25 06:51 33.84132 -111.85043 7596 ft 270 kts 202°
2026-04-25 06:52 33.82393 -111.85820 7300 ft 268 kts 202°
2026-04-25 06:52 33.80654 -111.86597 7001 ft 268 kts 202°
2026-04-25 06:52 33.78879 -111.87389 6694 ft 267 kts 201°
2026-04-25 06:52 33.77125 -111.88171 6393 ft 266 kts 201°
2026-04-25 06:53 33.75374 -111.88952 6090 ft 265 kts 201°
2026-04-25 06:53 33.73647 -111.89722 5790 ft 266 kts 201°
2026-04-25 06:53 33.71883 -111.90507 5490 ft 267 kts 201°
2026-04-25 06:53 33.70137 -111.91285 5192 ft 266 kts 201°
2026-04-25 06:54 33.68409 -111.92054 4894 ft 264 kts 201°
2026-04-25 06:54 33.66669 -111.92828 4594 ft 263 kts 201°
2026-04-25 06:54 33.65000 -111.93570 4304 ft 263 kts 201°
2026-04-25 06:54 33.63358 -111.94300 4023 ft 264 kts 201°
2026-04-25 06:55 33.61621 -111.95071 3727 ft 263 kts 201°
2026-04-25 06:55 33.59969 -111.95805 3507 ft 237 kts 201°
2026-04-25 06:55 33.58541 -111.96438 3248 ft 202 kts 201°
2026-04-25 06:55 33.57322 -111.96586 3350 ft 165 kts 162°
2026-04-25 06:56 33.56740 -111.96013 3340 ft 163 kts 125°
2026-04-25 06:56 33.56604 -111.94743 3175 ft 166 kts 73°
2026-04-25 06:56 33.57374 -111.93770 3003 ft 167 kts 22°
2026-04-25 06:56 33.58517 -111.93535 2789 ft 170 kts 358°
2026-04-25 06:57 33.59676 -111.93620 2556 ft 159 kts
2026-04-25 06:57 33.60590 -111.92961 2042 ft 159 kts 36°
2026-04-25 06:57 33.61411 -111.92070 1520 ft 155 kts 47°
2026-04-25 06:57 33.62112 -111.91254 1473 ft 124 kts 43°
2026-04-25 06:58 33.62509 -111.90798 1488 ft 26 kts 44°
2026-04-25 06:58 33.62582 -111.90715 1490 ft 12 kts 44°
2026-04-25 06:58 33.62649 -111.90637 1493 ft 13 kts 44°
2026-04-25 06:58 33.62717 -111.90559 1495 ft 13 kts 43°
2026-04-25 06:59 33.62783 -111.90483 1497 ft 14 kts 45°
2026-04-25 06:59 33.62790 -111.90382 1499 ft 9 kts 168°
2026-04-25 06:59 33.62735 -111.90424 1497 ft 11 kts 223°
2026-04-25 06:59 33.62689 -111.90452 1496 ft 6 kts 165°
2026-04-25 07:00 33.62641 -111.90436 1495 ft 0 kts 168°